Regional Weather Roundup
Issued by NWS

Home | Current Version | Previous Version | Graphics & Text | Print | Product List | Glossary Off
Versions: 1 2 3 4 5 6 7 8 9 10 11 12 13 14 15 16 17 18 19 20 21 22 23 24 25 26 27 28 29 30 31 32 33 34 35 36 37 38 39 40 41 42 43 44 45 46 47 48 49 50

000
ASUS43 KDMX 210407
RWRIA

WEATHER ROUNDUP FOR IOWA
NATIONAL WEATHER SERVICE DES MOINES IA
1100 PM CDT MON APR 20 2015

NOTE: "FAIR" INDICATES FEW OR NO CLOUDS BELOW 12,000 FEET WITH NO
SIGNIFICANT WEATHER AND/OR OBSTRUCTIONS TO VISIBILITY.

* - THESE STATIONS ARE NOT NWS STATIONS...THUS NOT UNDER NWS
QUALITY CONTROL.  THEY ALSO DO NOT REPORT WEATHER SUCH
AS PRECIPITATION OR FOG.

IAZ001>003-012>014-020>022-031>034-043>046-210500-
   NORTHWEST IOWA

CITY           SKY/WX    TMP DP  RH WIND       PRES   REMARKS
CARROLL *      MOCLDY    37  21  52 W9        29.72F WCI  31
CHEROKEE *     CLEAR     39  19  45 W6        29.72S WCI  35
DENISON *      CLEAR     39  21  48 CALM      29.73S
LE MARS *      CLEAR     37  16  41 W5        29.75S WCI  34
ORANGE CITY *  CLEAR     36  16  44 NW3       29.72S
SHELDON *      CLEAR     34  27  75 NW7       29.71R WCI  28
SIOUX CITY     CLEAR     43  13  29 W12       29.75S
SPENCER        CLEAR     32  27  81 NW8       29.70S WCI  25
STORM LAKE *   CLEAR     36  23  60 W10       29.72S WCI  28
$$

IAZ055>058-069>071-079>083-090>094-210500-
   SOUTHWEST IOWA

CITY           SKY/WX    TMP DP  RH WIND       PRES   REMARKS
ATLANTIC *     PTCLDY    39  23  52 W8        29.77S WCI  34
AUDUBON *      CLEAR     37  25  60 W3        29.75F
CLARINDA *     CLEAR     43  28  56 W7        29.81S
COUNCIL BLFS * CLEAR     46  18  31 W12       29.79S
CRESTON *      CLEAR     41  25  52 W10       29.77S
HARLAN  *      CLEAR     41  21  45 W13       29.79S
LAMONI         PTCLDY    44  26  49 W12       29.77S
RED OAK *      CLEAR     41  27  56 W6        29.79S
SHENANDOAH *   PTCLDY    41  30  65 SW5       29.81S
$$

IAZ047>049-059>061-072>074-084-210500-
   CENTRAL IOWA

CITY           SKY/WX    TMP DP  RH WIND       PRES   REMARKS
AMES           CLEAR     37  30  75 W5        29.70F WCI  33
ANKENY *       CLEAR     43  23  45 NW6       29.72S
CHARITON *     MOCLDY    45  21  39 W10G17    29.74S
DES MOINES     CLEAR     46  19  34 NW9G21    29.73R
GRINNELL*      CLEAR     39  34  81 NW7       29.72R WCI  34
KNOXVILLE *    CLEAR     43  21  42 SW9       29.71S
MARSHALLTOWN   PTCLDY    37  33  85 SW7       29.68F WCI  32
PELLA *        CLEAR     46  28  49 W12       29.72S
PERRY *          N/A     37  30  75 W8        29.72F WCI  31
$$

IAZ004>006-015-016-023>025-035-036-210500-
   NORTH CENTRAL IOWA

CITY           SKY/WX    TMP DP  RH WIND       PRES   REMARKS
ALGONA *       PTCLDY    39  30  70 W13       29.68F WCI  32
CLARION *      PTCLDY    36  32  87 W8        29.68S WCI  29
ESTHERVILLE    CLEAR     37  27  67 W14       29.67S WCI  28
FORT DODGE *   CLEAR     36  28  75 CALM      29.71R
MASON CITY     CLEAR     36  28  73 W13       29.65S WCI  27
FOREST CITY *  PTCLDY    36  30  80 W10       29.64F WCI  28
IOWA FALLS *     N/A     37  32  81 W8        29.69S WCI  31
$$

IAZ007>011-017>019-026>030-037>042-050>054-066-210500-
   NORTHEAST IOWA

CITY           SKY/WX    TMP DP  RH WIND       PRES   REMARKS
CEDAR RAPIDS   CLEAR     38  33  82 W12       29.68R WCI  30
CHARLES CITY * CLEAR     37  32  81 W13       29.63S WCI  29
CLINTON *      PTCLDY    37  32  81 W10       29.69S WCI  30
DECORAH *      MOCLDY    39  30  70 W9G20     29.57F WCI  33
DUBUQUE        CLOUDY    40  31  70 W12       29.62F WCI  33
MONTICELLO *   CLOUDY    41  34  75 W14       29.64F
OELWEIN *      CLEAR     39  32  75 W13       29.63F WCI  32
WATERLOO       PTCLDY    41  28  60 W14       29.65F
$$

IAZ064-065-067-068-078-210500-
   EAST CENTRAL IOWA

CITY           SKY/WX    TMP DP  RH WIND       PRES   REMARKS
DAVENPORT      PTCLDY    37  33  85 W7        29.68F WCI  32
IOWA CITY      CLEAR     38  32  79 NW6       29.71R WCI  33
MT. PLEASANT * CLEAR     39  28  65 SW7       29.71S WCI  34
MUSCATINE *    CLEAR     41  30  65 W6        29.70S
QUAD CITIES    CLEAR     37  32  82 SW5       29.67F WCI  33
$$

IAZ062-063-075>077-085>089-095>099-210500-
   SOUTHEAST IOWA

CITY           SKY/WX    TMP DP  RH WIND       PRES   REMARKS
BURLINGTON     CLEAR     43  30  60 W8        29.71S
FAIRFIELD *    CLEAR     43  23  45 W9        29.72R
FORT MADISON * CLEAR     46  28  49 SW9       29.73S
KEOKUK *       CLEAR     43  30  61 SW8       29.73S
OSKALOOSA *      N/A     39  27  60 NW9       29.72R WCI  33
CENTERVILLE *  CLEAR     41  28  60 SW10      29.76S
OTTUMWA        CLEAR     39  25  57 SW9       29.71S WCI  33
WASHINGTON *   CLEAR     41  28  60 W6        29.70S
$$

ABBREVIATIONS USED IN REMARKS
   TC - TEMPERATURES IN CELSIUS
  WCI - WIND CHILL INDEX
   HX - HEAT INDEX
  VSB - VISIBILITY
$$



USA.gov is the U.S. government's official web portal to all federal, state and local government web resources and services.